ATLAS 2A CENTAUR R/B

基本信息
目录编号:
25968
目录名称:
ATLAS 2A CENTAUR R/B
国际标识:
1999-063B
轨道中心:
EARTH
物体状态:
在轨
发射日期:
1999-11-23 UTC
国别:
美国 (US)
轨道信息
数据来源: 国际轨道数据
星历时间: 2026-07-13T14:59:07+0800
半长轴: 8466.892km
偏心率: 0.2258103
轨道倾角: 26.785°
近地点辐角: 291.857°
升交点赤经: 306.067°
平近点角: 45.764°
近地点: 176.843km
远地点: 4000.667km
周期: 129.225分钟
每日圈数: 11.143376
详细信息
发射场:
AFETR
轨道高度:
LEO
数据来源:
AOE Integration Group
参考系:
TEME
时间系统:
UTC
历元类型:
SGP4
2D轨道图
3D轨道图
轨道高度分析图
轨道倾角分析图
轨道综合分析图
查看轨道综合分析图